Regional Weather Roundup
Issued by NWS

Home | Current Version | Previous Version | Graphics & Text | Print | Product List | Glossary On
Versions: 1 2 3 4 5 6 7 8 9 10 11 12 13 14 15 16 17 18 19 20 21 22 23 24 25 26 27 28 29 30 31 32 33 34 35 36 37 38 39 40 41 42 43 44 45 46 47 48 49 50
000
ASUS43 KLOT 240110
RWRIL

ILLINOIS REGIONAL WEATHER ROUNDUP
NATIONAL WEATHER SERVICE CHICAGO/ROMEOVILLE IL
800 PM CDT WED APR 23 2014

NOTE: "FAIR" INDICATES FEW OR NO CLOUDS BELOW 12,000 FEET WITH NO
SIGNIFICANT WEATHER AND/OR OBSTRUCTIONS TO VISIBILITY.

* THESE STATIONS ARE NOT UNDER NWS QUALITY CONTROL. THEY ALSO MAY NOT
  REPORT WEATHER SUCH AS PRECIPITATION OR FOG.

ILZ001-002-007-009-015-016-024-240200-
NORTHWEST ILLINOIS

CITY           SKY/WX    TMP DP  RH WIND       PRES   REMARKS
MOLINE         CLOUDY    49  39  68 SE9       29.99F
STERLING*      CLOUDY    50  36  57 E15       30.00F
SAVANNA*       RAIN      48  40  74 E8        30.00F
$$

ILZ003-004-008-010-011-017-018-240200-
NORTH CENTRAL ILLINOIS

CITY           SKY/WX    TMP DP  RH WIND       PRES   REMARKS
ROCKFORD       CLOUDY    50  25  37 E14       30.06F
FREEPORT*      LGT RAIN  46  32  57 E15       30.03F
ROCHELLE*      CLOUDY    49  29  45 E15       30.04F
DE KALB*       CLOUDY    46  26  44 E13       30.07F
PERU*          CLOUDY    55  32  42 CALM      30.03F
$$

ILZ005-006-012>014-019>023-240200-
NORTHEAST ILLINOIS

CITY           SKY/WX    TMP DP  RH WIND       PRES   REMARKS
CHICAGO-OHARE  CLOUDY    42  18  37 NE10      30.12R
CHICAGO-MIDWAY CLOUDY    43  22  43 NE7       30.13R
AURORA         CLOUDY    49  26  41 E14       30.08F
LANSING*       CLOUDY    40  27  59 NE10      30.12R
JOLIET*        CLOUDY    46  25  43 E8        30.11S
WAUKEGAN       CLOUDY    39  20  46 NE6       30.11F WCI  35
DUPAGE AIRPORT CLOUDY    45  24  43 E10       30.09F
KANKAKEE*      CLOUDY    46  30  55 NE12      30.10R
WHEELING       CLOUDY    41  21  44 NE6       30.13S
MORRIS*        CLOUDY    50  24  36 E14       30.07F
ROMEOVILLE*    CLOUDY    45  24  44 E10       30.10S
NORTHERLY ISL    N/A     40  27  60 N10         N/A
$$

LMZ740>746-240200-
SOUTHERN LAKE MICHIGAN

STATION/POSITION SKY/WX   TEMP    WIND        PRES    VSBY  WAVE
                          AIR SEA DIR/SP/G                  HT/PER
                          (F)     (DEG/KT/KT) (MB)    (MI)  (FT/S)
WAUKEGAN HARBOR            38      40/  8/  9 1021.3F
HARRISON CRIB              38      10/  9/ 10   N/A
BURNHAM HARBOR             40      30/  8/ 12   N/A
CALUMET HARBOR             39      20/  9/ 11 1021.0R
MICHIGAN CITY              37      10/ 10/ 11   N/A
$$

ILZ025>027-034>036-040-047-049-050-058-095>099-240200-
WEST-CENTRAL ILLINOIS

CITY           SKY/WX    TMP DP  RH WIND       PRES   REMARKS
QUINCY         MOCLDY    57  33  40 SE15      29.93F
GALESBURG*     CLOUDY    50  39  65 E6        30.00R
MACOMB*        CLOUDY    52  38  59 E10       29.98F
JACKSONVILLE*  CLOUDY    58  29  33 SE8       29.99F
PITTSFIELD*    CLOUDY    58  34  40 E7        29.97F
$$

ILZ028>032-037-038-041>044-048-051>054-059>061-240200-
CENTRAL ILLINOIS

CITY           SKY/WX    TMP DP  RH WIND       PRES   REMARKS
PONTIAC        CLOUDY    55  28  35 MISG      30.05F
BLOOMINGTON    LGT RAIN  50  37  60 E9        30.04F
DECATUR        CLOUDY    58  28  32 E10       30.01F
PEORIA         CLOUDY    55  36  48 E15       30.00F
LACON*         LGT RAIN  51  39  64 E6        30.02R
LINCOLN*       CLOUDY    57  32  38 E10       30.01R
SPRINGFIELD    CLOUDY    59  28  30 SE10      30.00F
TAYLORVILLE    CLOUDY    57  30  35 SE6       30.01R
$$

ILZ033-039-045-046-055>057-062-063-240200-
EAST-CENTRAL ILLINOIS

CITY           SKY/WX    TMP DP  RH WIND       PRES   REMARKS
CHAMPAIGN      LGT RAIN  56  36  47 E15       30.00F
RANTOUL*       DRIZZLE   59  28  29 CALM      30.05F
MATTOON        CLOUDY    57  31  37 E5        30.03F
PARIS*         CLOUDY    58  32  37 NE3       30.07R
$$

ILZ079-100>102-240200-
SOUTHWEST ILLINOIS

CITY           SKY/WX    TMP DP  RH WIND       PRES   REMARKS
ALTON          MOCLDY    57  36  44 E7        29.99S
BELLEVILLE     MOCLDY    59  38  45 E5        29.98S
CAHOKIA*       CLOUDY    60  39  45 E7        29.99R
SPARTA*        MOCLDY    57  36  44 E8        30.00S
$$

ILZ064>066-069>071-074>076-080>082-084>086-088>090-092>094-240200-
SOUTH-CENTRAL ILLINOIS

CITY           SKY/WX    TMP DP  RH WIND       PRES   REMARKS
CARBONDALE     PTCLDY    59  36  42 E9        30.00R
CAIRO*         CLEAR     64  36  34 E5        29.99R
MARION         PTCLDY    61  34  36 E5        30.01S
MT. VERNON     CLOUDY    59  30  33 E5        30.03S
CENTRALIA*     CLOUDY    60  32  35 E5        30.01S
SALEM*         LGT RAIN  61  33  35 E6        30.01F
METROPOLIS*    CLEAR     62  29  28 NE3       29.99S
$$

ILZ067-068-072-073-078-083-087-091-240200-
SOUTHEAST ILLINOIS

CITY           SKY/WX    TMP DP  RH WIND       PRES   REMARKS
FLORA*         PTCLDY    59  33  37 E5        30.03F
FAIRFIELD*     CLOUDY    61  36  39 E7        30.02F
HARRISBURG*    MOCLDY    59  35  39 NE5       30.03S
ROBINSON*      MOCLDY    59  35  39 N3        30.05S
CARMI*         MOCLDY    58  45  61 NE5       30.02S
$$

ABBREVIATIONS USED IN REMARKS
   TC - TEMPERATURE IN CELSIUS
  WCI - WIND CHILL INDEX
   HX - HEAT INDEX
  VSB - VISIBILITY
$$




USA.gov is the U.S. government's official web portal to all federal, state and local government web resources and services.